sat.trackr.live / text

‹ back to catalog

LEMUR-2-DELOITTE-5

NORAD 69910 · 2026-156AT

PAYLOAD ACTIVE UNKNOWN

§ Identity

Operator
Country
US
Launch date
2026-07-07
Launch site
AFWTR
Launch vehicle
Mass (kg)
RCS (m²)

External: N2YO · Heavens-Above · Gunter

§ Orbital elements

Epoch: 2026-09-18T22:57:13.968288Z

Period
96.56 min
Inclination
97.7460°
Eccentricity
0.0001359
Mean motion
14.91311908 rev/d
Perigee alt
592.9 km
Apogee alt
594.8 km
Semi-major
6,972.0 km
B*
2.2896e-4
RAAN
161.1154°
Arg perigee
264.3067°
Mean anomaly
95.7997°
Rev number
1,097

§ Raw data

LEMUR-2-DELOITTE-51 69910U 26156AT  26261.95641167  .00002226  00000+0  22896-3 0  99922 69910  97.7460 161.1154 0001359 264.3067  95.7997 14.91311908 10975

JSON: /api/v1/satellites/69910 · /tle

For live sub-satellite position, see the globe view (requires WebGL).

§ Visibility from observer

Set your observer location to see the next 7 days of passes ≥ 10°. The values pass through the URL so the page stays shareable.

No JS? Fill the form by hand. The geolocation button needs JavaScript.